Year,Month,Day,Hour,Minute,Value (Times are PST for insolation in W/m^2)
2010,04,14,00,00,0.00
2010,04,14,00,01,0.00
2010,04,14,00,02,0.00
2010,04,14,00,03,0.00
2010,04,14,00,04,0.00
2010,04,14,00,05,0.00
2010,04,14,00,06,0.00
2010,04,14,00,07,0.00
2010,04,14,00,08,0.00
2010,04,14,00,09,0.00
2010,04,14,00,10,0.00
2010,04,14,00,11,0.00
2010,04,14,00,12,0.00
2010,04,14,00,13,0.00
2010,04,14,00,14,0.00
2010,04,14,00,15,0.00
2010,04,14,00,16,0.00
2010,04,14,00,17,0.00
2010,04,14,00,18,0.00
2010,04,14,00,19,0.00
2010,04,14,00,20,0.00
2010,04,14,00,21,0.00
2010,04,14,00,22,0.00
2010,04,14,00,23,0.00
2010,04,14,00,24,0.00
2010,04,14,00,25,0.00
2010,04,14,00,26,0.00
2010,04,14,00,27,0.00
2010,04,14,00,28,0.00
2010,04,14,00,29,0.00
2010,04,14,00,30,0.00
2010,04,14,00,31,0.00
2010,04,14,00,32,0.00
2010,04,14,00,33,0.00
2010,04,14,00,34,0.00
2010,04,14,00,35,0.00
2010,04,14,00,36,0.00
2010,04,14,00,37,0.00
2010,04,14,00,38,0.00
2010,04,14,00,39,0.00
2010,04,14,00,40,0.00
2010,04,14,00,41,0.00
2010,04,14,00,42,0.00
2010,04,14,00,43,0.00
2010,04,14,00,44,0.00
2010,04,14,00,45,0.00
2010,04,14,00,46,0.00
2010,04,14,00,47,0.00
2010,04,14,00,48,0.00
2010,04,14,00,49,0.00
2010,04,14,00,50,0.00
2010,04,14,00,51,0.00
2010,04,14,00,52,0.00
2010,04,14,00,53,0.00
2010,04,14,00,54,0.00
2010,04,14,00,55,0.00
2010,04,14,00,56,0.00
2010,04,14,00,57,0.00
2010,04,14,00,58,0.00
2010,04,14,00,59,0.00
2010,04,14,01,00,0.00
2010,04,14,01,01,0.00
2010,04,14,01,02,0.00
2010,04,14,01,03,0.00
2010,04,14,01,04,0.00
2010,04,14,01,05,0.00
2010,04,14,01,06,0.00
2010,04,14,01,07,0.00
2010,04,14,01,08,0.00
2010,04,14,01,09,0.00
2010,04,14,01,10,0.00
2010,04,14,01,11,0.00
2010,04,14,01,12,0.00
2010,04,14,01,13,0.00
2010,04,14,01,14,0.00
2010,04,14,01,15,0.00
2010,04,14,01,16,0.00
2010,04,14,01,17,0.00
2010,04,14,01,18,0.00
2010,04,14,01,19,0.00
2010,04,14,01,20,0.00
2010,04,14,01,21,0.00
2010,04,14,01,22,0.00
2010,04,14,01,23,0.00
2010,04,14,01,24,0.00
2010,04,14,01,25,0.00
2010,04,14,01,26,0.00
2010,04,14,01,27,0.00
2010,04,14,01,28,0.00
2010,04,14,01,29,0.00
2010,04,14,01,30,0.00
2010,04,14,01,31,0.00
2010,04,14,01,32,0.00
2010,04,14,01,33,0.00
2010,04,14,01,34,0.00
2010,04,14,01,35,0.00
2010,04,14,01,36,0.00
2010,04,14,01,37,0.00
2010,04,14,01,38,0.00
2010,04,14,01,39,0.00
2010,04,14,01,40,0.00
2010,04,14,01,41,0.00
2010,04,14,01,42,0.00
2010,04,14,01,43,0.00
2010,04,14,01,44,0.00
2010,04,14,01,45,0.00
2010,04,14,01,46,0.00
2010,04,14,01,47,0.00
2010,04,14,01,48,0.00
2010,04,14,01,49,0.00
2010,04,14,01,50,0.00
2010,04,14,01,51,0.00
2010,04,14,01,52,0.00
2010,04,14,01,53,0.00
2010,04,14,01,54,0.00
2010,04,14,01,55,0.00
2010,04,14,01,56,0.00
2010,04,14,01,57,0.00
2010,04,14,01,58,0.00
2010,04,14,01,59,0.00
2010,04,14,02,00,0.00
2010,04,14,02,01,0.00
2010,04,14,02,02,0.00
2010,04,14,02,03,0.00
2010,04,14,02,04,0.00
2010,04,14,02,05,0.00
2010,04,14,02,06,0.00
2010,04,14,02,07,0.00
2010,04,14,02,08,0.00
2010,04,14,02,09,0.00
2010,04,14,02,10,0.00
2010,04,14,02,11,0.00
2010,04,14,02,12,0.00
2010,04,14,02,13,0.00
2010,04,14,02,14,0.00
2010,04,14,02,15,0.00
2010,04,14,02,16,0.00
2010,04,14,02,17,0.00
2010,04,14,02,18,0.00
2010,04,14,02,19,0.00
2010,04,14,02,20,0.00
2010,04,14,02,21,0.00
2010,04,14,02,22,0.00
2010,04,14,02,23,0.00
2010,04,14,02,24,0.00
2010,04,14,02,25,0.00
2010,04,14,02,26,0.00
2010,04,14,02,27,0.00
2010,04,14,02,28,0.00
2010,04,14,02,29,0.00
2010,04,14,02,30,0.00
2010,04,14,02,31,0.00
2010,04,14,02,32,0.00
2010,04,14,02,33,0.00
2010,04,14,02,34,0.00
2010,04,14,02,35,0.00
2010,04,14,02,36,0.00
2010,04,14,02,37,0.00
2010,04,14,02,38,0.00
2010,04,14,02,39,0.00
2010,04,14,02,40,0.00
2010,04,14,02,41,0.00
2010,04,14,02,42,0.00
2010,04,14,02,43,0.00
2010,04,14,02,44,0.00
2010,04,14,02,45,0.00
2010,04,14,02,46,0.00
2010,04,14,02,47,0.00
2010,04,14,02,48,0.00
2010,04,14,02,49,0.00
2010,04,14,02,50,0.00
2010,04,14,02,51,0.00
2010,04,14,02,52,0.00
2010,04,14,02,53,0.00
2010,04,14,02,54,0.00
2010,04,14,02,55,0.00
2010,04,14,02,56,0.00
2010,04,14,02,57,0.00
2010,04,14,02,58,0.00
2010,04,14,02,59,0.00
2010,04,14,03,00,0.00
2010,04,14,03,01,0.00
2010,04,14,03,02,0.00
2010,04,14,03,03,0.00
2010,04,14,03,04,0.00
2010,04,14,03,05,0.00
2010,04,14,03,06,0.00
2010,04,14,03,07,0.00
2010,04,14,03,08,0.00
2010,04,14,03,09,0.00
2010,04,14,03,10,0.00
2010,04,14,03,11,0.00
2010,04,14,03,12,0.00
2010,04,14,03,13,0.00
2010,04,14,03,14,0.00
2010,04,14,03,15,0.00
2010,04,14,03,16,0.00
2010,04,14,03,17,0.00
2010,04,14,03,18,0.00
2010,04,14,03,19,0.00
2010,04,14,03,20,0.00
2010,04,14,03,21,0.00
2010,04,14,03,22,0.00
2010,04,14,03,23,0.00
2010,04,14,03,24,0.00
2010,04,14,03,25,0.00
2010,04,14,03,26,0.00
2010,04,14,03,27,0.00
2010,04,14,03,28,0.00
2010,04,14,03,29,0.00
2010,04,14,03,30,0.00
2010,04,14,03,31,0.00
2010,04,14,03,32,0.00
2010,04,14,03,33,0.00
2010,04,14,03,34,0.00
2010,04,14,03,35,0.00
2010,04,14,03,36,0.00
2010,04,14,03,37,0.00
2010,04,14,03,38,0.00
2010,04,14,03,39,0.00
2010,04,14,03,40,0.00
2010,04,14,03,41,0.00
2010,04,14,03,42,0.00
2010,04,14,03,43,0.00
2010,04,14,03,44,0.00
2010,04,14,03,45,0.00
2010,04,14,03,46,0.00
2010,04,14,03,47,0.00
2010,04,14,03,48,0.00
2010,04,14,03,49,0.00
2010,04,14,03,50,0.00
2010,04,14,03,51,0.00
2010,04,14,03,52,0.00
2010,04,14,03,53,0.00
2010,04,14,03,54,0.00
2010,04,14,03,55,0.00
2010,04,14,03,56,0.00
2010,04,14,03,57,0.00
2010,04,14,03,58,0.00
2010,04,14,03,59,0.00
2010,04,14,04,00,0.00
2010,04,14,04,01,0.00
2010,04,14,04,02,0.00
2010,04,14,04,03,0.00
2010,04,14,04,04,0.00
2010,04,14,04,05,0.00
2010,04,14,04,06,0.00
2010,04,14,04,07,0.00
2010,04,14,04,08,0.00
2010,04,14,04,09,0.00
2010,04,14,04,10,0.00
2010,04,14,04,11,0.00
2010,04,14,04,12,0.00
2010,04,14,04,13,0.00
2010,04,14,04,14,0.00
2010,04,14,04,15,0.00
2010,04,14,04,16,0.00
2010,04,14,04,17,0.00
2010,04,14,04,18,0.00
2010,04,14,04,19,0.00
2010,04,14,04,20,0.00
2010,04,14,04,21,0.00
2010,04,14,04,22,0.00
2010,04,14,04,23,0.00
2010,04,14,04,24,0.00
2010,04,14,04,25,0.00
2010,04,14,04,26,0.00
2010,04,14,04,27,0.00
2010,04,14,04,28,0.00
2010,04,14,04,29,0.00
2010,04,14,04,30,0.00
2010,04,14,04,31,0.00
2010,04,14,04,32,0.00
2010,04,14,04,33,0.00
2010,04,14,04,34,0.00
2010,04,14,04,35,0.00
2010,04,14,04,36,0.00
2010,04,14,04,37,0.00
2010,04,14,04,38,0.00
2010,04,14,04,39,0.00
2010,04,14,04,40,0.00
2010,04,14,04,41,0.00
2010,04,14,04,42,0.00
2010,04,14,04,43,0.00
2010,04,14,04,44,0.00
2010,04,14,04,45,0.00
2010,04,14,04,46,0.00
2010,04,14,04,47,0.00
2010,04,14,04,48,0.00
2010,04,14,04,49,0.00
2010,04,14,04,50,0.00
2010,04,14,04,51,0.00
2010,04,14,04,52,0.00
2010,04,14,04,53,0.00
2010,04,14,04,54,0.00
2010,04,14,04,55,0.00
2010,04,14,04,56,0.00
2010,04,14,04,57,0.00
2010,04,14,04,58,0.00
2010,04,14,04,59,0.00
2010,04,14,05,00,0.00
2010,04,14,05,01,0.00
2010,04,14,05,02,0.00
2010,04,14,05,03,0.00
2010,04,14,05,04,0.00
2010,04,14,05,05,0.00
2010,04,14,05,06,0.00
2010,04,14,05,07,0.00
2010,04,14,05,08,0.00
2010,04,14,05,09,0.00
2010,04,14,05,10,0.00
2010,04,14,05,11,0.00
2010,04,14,05,12,0.00
2010,04,14,05,13,0.00
2010,04,14,05,14,0.00
2010,04,14,05,15,0.00
2010,04,14,05,16,0.00
2010,04,14,05,17,0.00
2010,04,14,05,18,0.00
2010,04,14,05,19,0.00
2010,04,14,05,20,0.00
2010,04,14,05,21,0.00
2010,04,14,05,22,0.00
2010,04,14,05,23,0.00
2010,04,14,05,24,0.00
2010,04,14,05,25,0.00
2010,04,14,05,26,0.00
2010,04,14,05,27,0.00
2010,04,14,05,28,0.00
2010,04,14,05,29,0.00
2010,04,14,05,30,0.00
2010,04,14,05,31,0.00
2010,04,14,05,32,0.00
2010,04,14,05,33,0.00
2010,04,14,05,34,0.00
2010,04,14,05,35,0.00
2010,04,14,05,36,0.00
2010,04,14,05,37,0.00
2010,04,14,05,38,0.00
2010,04,14,05,39,0.00
2010,04,14,05,40,0.00
2010,04,14,05,41,0.00
2010,04,14,05,42,0.00
2010,04,14,05,43,0.00
2010,04,14,05,44,0.00
2010,04,14,05,45,0.00
2010,04,14,05,46,0.00
2010,04,14,05,47,0.00
2010,04,14,05,48,0.00
2010,04,14,05,49,0.00
2010,04,14,05,50,0.00
2010,04,14,05,51,0.00
2010,04,14,05,52,0.00
2010,04,14,05,53,0.00
2010,04,14,05,54,0.00
2010,04,14,05,55,0.00
2010,04,14,05,56,0.00
2010,04,14,05,57,0.00
2010,04,14,05,58,0.00
2010,04,14,05,59,0.00
2010,04,14,06,00,0.00
2010,04,14,06,01,0.00
2010,04,14,06,02,0.00
2010,04,14,06,03,0.00
2010,04,14,06,04,0.00
2010,04,14,06,05,0.00
2010,04,14,06,06,0.00
2010,04,14,06,07,0.00
2010,04,14,06,08,0.00
2010,04,14,06,09,0.00
2010,04,14,06,10,0.00
2010,04,14,06,11,0.00
2010,04,14,06,12,0.00
2010,04,14,06,13,0.00
2010,04,14,06,14,0.00
2010,04,14,06,15,0.00
2010,04,14,06,16,0.00
2010,04,14,06,17,0.00
2010,04,14,06,18,0.00
2010,04,14,06,19,0.00
2010,04,14,06,20,0.00
2010,04,14,06,21,0.00
2010,04,14,06,22,0.00
2010,04,14,06,23,0.00
2010,04,14,06,24,0.00
2010,04,14,06,25,0.00
2010,04,14,06,26,0.00
2010,04,14,06,27,0.00
2010,04,14,06,28,0.00
2010,04,14,06,29,4.80
2010,04,14,06,30,5.00
2010,04,14,06,31,5.00
2010,04,14,06,32,5.00
2010,04,14,06,33,6.40
2010,04,14,06,34,7.00
2010,04,14,06,35,7.00
2010,04,14,06,36,7.00
2010,04,14,06,37,7.00
2010,04,14,06,38,8.10
2010,04,14,06,39,9.00
2010,04,14,06,40,9.00
2010,04,14,06,41,9.30
2010,04,14,06,42,11.00
2010,04,14,06,43,11.00
2010,04,14,06,44,11.00
2010,04,14,06,45,11.70
2010,04,14,06,46,12.00
2010,04,14,06,47,14.00
2010,04,14,06,48,14.60
2010,04,14,06,49,16.90
2010,04,14,06,50,18.00
2010,04,14,06,51,18.80
2010,04,14,06,52,20.80
2010,04,14,06,53,23.00
2010,04,14,06,54,23.60
2010,04,14,06,55,25.40
2010,04,14,06,56,27.30
2010,04,14,06,57,25.70
2010,04,14,06,58,23.20
2010,04,14,06,59,25.20
2010,04,14,07,00,26.70
2010,04,14,07,01,27.00
2010,04,14,07,02,25.40
2010,04,14,07,03,25.00
2010,04,14,07,04,25.10
2010,04,14,07,05,27.40
2010,04,14,07,06,34.50
2010,04,14,07,07,41.60
2010,04,14,07,08,46.10
2010,04,14,07,09,48.70
2010,04,14,07,10,49.20
2010,04,14,07,11,51.50
2010,04,14,07,12,51.40
2010,04,14,07,13,47.50
2010,04,14,07,14,43.20
2010,04,14,07,15,39.40
2010,04,14,07,16,33.00
2010,04,14,07,17,33.00
2010,04,14,07,18,33.80
2010,04,14,07,19,35.00
2010,04,14,07,20,33.60
2010,04,14,07,21,33.00
2010,04,14,07,22,35.00
2010,04,14,07,23,35.00
2010,04,14,07,24,35.90
2010,04,14,07,25,37.00
2010,04,14,07,26,37.00
2010,04,14,07,27,37.00
2010,04,14,07,28,39.00
2010,04,14,07,29,39.30
2010,04,14,07,30,40.90
2010,04,14,07,31,42.00
2010,04,14,07,32,43.50
2010,04,14,07,33,48.30
2010,04,14,07,34,46.80
2010,04,14,07,35,46.30
2010,04,14,07,36,48.00
2010,04,14,07,37,50.30
2010,04,14,07,38,51.00
2010,04,14,07,39,51.10
2010,04,14,07,40,53.00
2010,04,14,07,41,53.30
2010,04,14,07,42,54.00
2010,04,14,07,43,55.30
2010,04,14,07,44,57.60
2010,04,14,07,45,58.20
2010,04,14,07,46,60.40
2010,04,14,07,47,62.40
2010,04,14,07,48,64.00
2010,04,14,07,49,66.30
2010,04,14,07,50,69.30
2010,04,14,07,51,72.00
2010,04,14,07,52,74.50
2010,04,14,07,53,76.00
2010,04,14,07,54,76.50
2010,04,14,07,55,78.40
2010,04,14,07,56,82.40
2010,04,14,07,57,83.40
2010,04,14,07,58,85.50
2010,04,14,07,59,84.00
2010,04,14,08,00,86.20
2010,04,14,08,01,88.00
2010,04,14,08,02,89.70
2010,04,14,08,03,91.50
2010,04,14,08,04,95.50
2010,04,14,08,05,98.40
2010,04,14,08,06,102.40
2010,04,14,08,07,104.70
2010,04,14,08,08,108.60
2010,04,14,08,09,113.20
2010,04,14,08,10,115.30
2010,04,14,08,11,119.00
2010,04,14,08,12,133.00
2010,04,14,08,13,142.00
2010,04,14,08,14,203.90
2010,04,14,08,15,161.00
2010,04,14,08,16,170.70
2010,04,14,08,17,168.10
2010,04,14,08,18,178.50
2010,04,14,08,19,152.20
2010,04,14,08,20,141.50
2010,04,14,08,21,141.00
2010,04,14,08,22,141.30
2010,04,14,08,23,143.90
2010,04,14,08,24,147.30
2010,04,14,08,25,150.50
2010,04,14,08,26,153.20
2010,04,14,08,27,157.10
2010,04,14,08,28,171.50
2010,04,14,08,29,196.00
2010,04,14,08,30,241.30
2010,04,14,08,31,327.30
2010,04,14,08,32,373.30
2010,04,14,08,33,385.10
2010,04,14,08,34,393.60
2010,04,14,08,35,396.00
2010,04,14,08,36,396.00
2010,04,14,08,37,400.30
2010,04,14,08,38,347.70
2010,04,14,08,39,276.00
2010,04,14,08,40,336.90
2010,04,14,08,41,421.20
2010,04,14,08,42,424.00
2010,04,14,08,43,424.00
2010,04,14,08,44,421.40
2010,04,14,08,45,416.70
2010,04,14,08,46,410.80
2010,04,14,08,47,405.60
2010,04,14,08,48,404.00
2010,04,14,08,49,405.80
2010,04,14,08,50,415.90
2010,04,14,08,51,423.00
2010,04,14,08,52,429.10
2010,04,14,08,53,438.30
2010,04,14,08,54,444.10
2010,04,14,08,55,449.30
2010,04,14,08,56,452.00
2010,04,14,08,57,453.70
2010,04,14,08,58,460.90
2010,04,14,08,59,471.70
2010,04,14,09,00,480.40
2010,04,14,09,01,496.30
2010,04,14,09,02,444.30
2010,04,14,09,03,207.00
2010,04,14,09,04,210.10
2010,04,14,09,05,211.80
2010,04,14,09,06,209.40
2010,04,14,09,07,213.50
2010,04,14,09,08,214.50
2010,04,14,09,09,222.70
2010,04,14,09,10,234.00
2010,04,14,09,11,236.60
2010,04,14,09,12,240.50
2010,04,14,09,13,252.80
2010,04,14,09,14,255.20
2010,04,14,09,15,250.00
2010,04,14,09,16,247.90
2010,04,14,09,17,241.40
2010,04,14,09,18,237.30
2010,04,14,09,19,237.50
2010,04,14,09,20,245.50
2010,04,14,09,21,251.80
2010,04,14,09,22,248.90
2010,04,14,09,23,246.60
2010,04,14,09,24,244.40
2010,04,14,09,25,243.90
2010,04,14,09,26,243.00
2010,04,14,09,27,243.00
2010,04,14,09,28,243.00
2010,04,14,09,29,243.00
2010,04,14,09,30,243.90
2010,04,14,09,31,246.70
2010,04,14,09,32,252.10
2010,04,14,09,33,257.20
2010,04,14,09,34,263.00
2010,04,14,09,35,268.10
2010,04,14,09,36,275.30
2010,04,14,09,37,287.10
2010,04,14,09,38,302.10
2010,04,14,09,39,321.30
2010,04,14,09,40,332.00
2010,04,14,09,41,507.40
2010,04,14,09,42,566.40
2010,04,14,09,43,714.60
2010,04,14,09,44,686.00
2010,04,14,09,45,512.50
2010,04,14,09,46,305.20
2010,04,14,09,47,266.40
2010,04,14,09,48,253.50
2010,04,14,09,49,244.80
2010,04,14,09,50,238.30
2010,04,14,09,51,237.00
2010,04,14,09,52,237.00
2010,04,14,09,53,236.20
2010,04,14,09,54,236.30
2010,04,14,09,55,240.30
2010,04,14,09,56,246.50
2010,04,14,09,57,254.70
2010,04,14,09,58,260.70
2010,04,14,09,59,266.30
2010,04,14,10,00,269.30
2010,04,14,10,01,271.00
2010,04,14,10,02,270.20
2010,04,14,10,03,266.40
2010,04,14,10,04,261.10
2010,04,14,10,05,258.30
2010,04,14,10,06,258.30
2010,04,14,10,07,260.60
2010,04,14,10,08,262.90
2010,04,14,10,09,264.00
2010,04,14,10,10,259.80
2010,04,14,10,11,250.80
2010,04,14,10,12,240.00
2010,04,14,10,13,233.00
2010,04,14,10,14,228.70
2010,04,14,10,15,223.30
2010,04,14,10,16,217.30
2010,04,14,10,17,209.50
2010,04,14,10,18,198.90
2010,04,14,10,19,190.90
2010,04,14,10,20,182.40
2010,04,14,10,21,172.50
2010,04,14,10,22,163.60
2010,04,14,10,23,155.00
2010,04,14,10,24,146.20
2010,04,14,10,25,137.50
2010,04,14,10,26,131.00
2010,04,14,10,27,125.00
2010,04,14,10,28,120.70
2010,04,14,10,29,120.10
2010,04,14,10,30,124.10
2010,04,14,10,31,128.70
2010,04,14,10,32,129.00
2010,04,14,10,33,127.30
2010,04,14,10,34,125.40
2010,04,14,10,35,124.80
2010,04,14,10,36,123.00
2010,04,14,10,37,123.80
2010,04,14,10,38,126.60
2010,04,14,10,39,132.20
2010,04,14,10,40,138.30
2010,04,14,10,41,148.70
2010,04,14,10,42,157.00
2010,04,14,10,43,162.90
2010,04,14,10,44,170.00
2010,04,14,10,45,177.20
2010,04,14,10,46,188.50
2010,04,14,10,47,200.10
2010,04,14,10,48,208.80
2010,04,14,10,49,215.70
2010,04,14,10,50,221.80
2010,04,14,10,51,221.50
2010,04,14,10,52,220.20
2010,04,14,10,53,218.40
2010,04,14,10,54,222.90
2010,04,14,10,55,229.30
2010,04,14,10,56,237.20
2010,04,14,10,57,254.10
2010,04,14,10,58,278.90
2010,04,14,10,59,314.70
2010,04,14,11,00,349.50
2010,04,14,11,01,376.20
2010,04,14,11,02,445.70
2010,04,14,11,03,461.70
2010,04,14,11,04,477.40
2010,04,14,11,05,443.90
2010,04,14,11,06,439.00
2010,04,14,11,07,457.90
2010,04,14,11,08,475.00
2010,04,14,11,09,475.00
2010,04,14,11,10,476.00
2010,04,14,11,11,511.20
2010,04,14,11,12,556.70
2010,04,14,11,13,525.30
2010,04,14,11,14,469.00
2010,04,14,11,15,431.10
2010,04,14,11,16,481.60
2010,04,14,11,17,504.00
2010,04,14,11,18,504.00
2010,04,14,11,19,472.40
2010,04,14,11,20,441.40
2010,04,14,11,21,412.40
2010,04,14,11,22,413.30
2010,04,14,11,23,449.20
2010,04,14,11,24,432.00
2010,04,14,11,25,378.10
2010,04,14,11,26,346.90
2010,04,14,11,27,338.00
2010,04,14,11,28,345.40
2010,04,14,11,29,345.30
2010,04,14,11,30,335.40
2010,04,14,11,31,332.00
2010,04,14,11,32,399.90
2010,04,14,11,33,382.00
2010,04,14,11,34,366.00
2010,04,14,11,35,366.00
2010,04,14,11,36,366.00
2010,04,14,11,37,366.00
2010,04,14,11,38,366.00
2010,04,14,11,39,366.00
2010,04,14,11,40,878.50
2010,04,14,11,41,907.00
2010,04,14,11,42,692.50
2010,04,14,11,43,478.00
2010,04,14,11,44,478.00
2010,04,14,11,45,500.50
2010,04,14,11,46,972.00
2010,04,14,11,47,971.30
2010,04,14,11,48,970.00
2010,04,14,11,49,970.00
2010,04,14,11,50,970.00
2010,04,14,11,51,372.90
2010,04,14,11,52,316.00
2010,04,14,11,53,316.00
2010,04,14,11,54,316.00
2010,04,14,11,55,305.80
2010,04,14,11,56,303.40
2010,04,14,11,57,313.20
2010,04,14,11,58,315.00
2010,04,14,11,59,286.80
2010,04,14,12,00,260.50
2010,04,14,12,01,237.80
2010,04,14,12,02,222.50
2010,04,14,12,03,266.90
2010,04,14,12,04,250.40
2010,04,14,12,05,239.00
2010,04,14,12,06,239.00
2010,04,14,12,07,489.90
2010,04,14,12,08,666.60
2010,04,14,12,09,671.10
2010,04,14,12,10,621.00
2010,04,14,12,11,621.00
2010,04,14,12,12,814.80
2010,04,14,12,13,949.00
2010,04,14,12,14,789.60
2010,04,14,12,15,683.70
2010,04,14,12,16,708.00
2010,04,14,12,17,701.00
2010,04,14,12,18,748.30
2010,04,14,12,19,789.00
2010,04,14,12,20,914.20
2010,04,14,12,21,825.00
2010,04,14,12,22,350.80
2010,04,14,12,23,376.00
2010,04,14,12,24,572.70
2010,04,14,12,25,671.00
2010,04,14,12,26,863.00
2010,04,14,12,27,916.00
2010,04,14,12,28,932.70
2010,04,14,12,29,947.70
2010,04,14,12,30,919.50
2010,04,14,12,31,898.90
2010,04,14,12,32,871.70
2010,04,14,12,33,907.10
2010,04,14,12,34,896.30
2010,04,14,12,35,902.00
2010,04,14,12,36,902.00
2010,04,14,12,37,467.50
2010,04,14,12,38,391.10
2010,04,14,12,39,431.00
2010,04,14,12,40,431.00
2010,04,14,12,41,431.00
2010,04,14,12,42,431.00
2010,04,14,13,31,784.30
2010,04,14,13,32,809.00
2010,04,14,13,33,764.90
2010,04,14,13,34,712.00
2010,04,14,13,35,712.00
2010,04,14,13,36,823.70
2010,04,14,13,37,838.30
2010,04,14,13,38,839.10
2010,04,14,13,39,836.10
2010,04,14,13,40,835.00
2010,04,14,13,41,831.20
2010,04,14,13,42,828.30
2010,04,14,13,43,824.30
2010,04,14,13,44,827.30
2010,04,14,13,45,830.00
2010,04,14,13,46,828.80
2010,04,14,13,47,824.90
2010,04,14,13,48,821.30
2010,04,14,13,49,818.60
2010,04,14,13,50,817.00
2010,04,14,13,51,819.00
2010,04,14,13,52,824.10
2010,04,14,13,53,829.90
2010,04,14,13,54,829.50
2010,04,14,13,55,818.00
2010,04,14,13,56,814.00
2010,04,14,13,57,814.00
2010,04,14,13,58,814.00
2010,04,14,13,59,815.60
2010,04,14,14,00,812.40
2010,04,14,14,01,813.50
2010,04,14,14,02,812.80
2010,04,14,14,03,815.00
2010,04,14,14,04,819.30
2010,04,14,14,05,825.30
2010,04,14,14,06,823.30
2010,04,14,14,07,824.00
2010,04,14,14,08,823.60
2010,04,14,14,09,818.10
2010,04,14,14,10,815.50
2010,04,14,14,11,816.00
2010,04,14,14,12,817.60
2010,04,14,14,13,823.30
2010,04,14,14,14,831.80
2010,04,14,14,15,843.10
2010,04,14,14,16,844.00
2010,04,14,14,17,838.90
2010,04,14,14,18,838.00
2010,04,14,14,19,840.60
2010,04,14,14,20,842.50
2010,04,14,14,21,835.80
2010,04,14,14,22,843.20
2010,04,14,14,23,850.50
2010,04,14,14,24,849.90
2010,04,14,14,25,856.90
2010,04,14,14,26,867.80
2010,04,14,14,27,880.40
2010,04,14,14,28,887.10
2010,04,14,14,29,892.60
2010,04,14,14,30,895.00
2010,04,14,14,31,895.00
2010,04,14,14,32,563.50
2010,04,14,14,33,232.00
2010,04,14,14,34,232.00
2010,04,14,14,35,200.50
2010,04,14,14,36,203.20
2010,04,14,14,37,197.10
2010,04,14,14,38,192.00
2010,04,14,14,39,184.70
2010,04,14,14,40,171.50
2010,04,14,14,41,160.20
2010,04,14,14,42,157.50
2010,04,14,14,43,153.30
2010,04,14,14,44,145.10
2010,04,14,14,45,136.40
2010,04,14,14,46,134.80
2010,04,14,14,47,120.50
2010,04,14,14,48,122.80
2010,04,14,14,49,151.00
2010,04,14,14,50,172.00
2010,04,14,14,51,367.00
2010,04,14,14,52,445.00
2010,04,14,14,53,820.00
2010,04,14,14,54,837.00
2010,04,14,14,55,837.00
2010,04,14,14,56,837.00
2010,04,14,14,57,384.70
2010,04,14,14,58,225.00
2010,04,14,14,59,790.00
2010,04,14,15,00,783.50
2010,04,14,15,01,783.70
2010,04,14,15,02,792.80
2010,04,14,15,03,798.00
2010,04,14,15,04,802.50
2010,04,14,15,05,801.30
2010,04,14,15,06,799.70
2010,04,14,15,07,802.50
2010,04,14,15,08,802.00
2010,04,14,15,09,804.20
2010,04,14,15,10,813.50
2010,04,14,15,11,818.20
2010,04,14,15,12,829.60
2010,04,14,15,13,837.70
2010,04,14,15,14,844.50
2010,04,14,15,15,848.40
2010,04,14,15,16,853.60
2010,04,14,15,17,834.00
2010,04,14,15,18,818.20
2010,04,14,15,19,802.20
2010,04,14,15,20,784.10
2010,04,14,15,21,779.00
2010,04,14,15,22,773.40
2010,04,14,15,23,770.70
2010,04,14,15,24,777.20
2010,04,14,15,25,784.00
2010,04,14,15,26,784.00
2010,04,14,15,27,784.00
2010,04,14,15,28,381.10
2010,04,14,15,29,271.00
2010,04,14,15,30,271.00
2010,04,14,15,31,271.00
2010,04,14,15,32,271.00
2010,04,14,15,33,714.70
2010,04,14,15,34,727.10
2010,04,14,15,35,724.00
2010,04,14,15,36,724.00
2010,04,14,15,37,749.10
2010,04,14,15,38,777.10
2010,04,14,15,39,770.90
2010,04,14,15,40,761.10
2010,04,14,15,41,712.10
2010,04,14,15,42,725.80
2010,04,14,15,43,710.30
2010,04,14,15,44,702.10
2010,04,14,15,45,687.80
2010,04,14,15,46,674.20
2010,04,14,15,47,673.90
2010,04,14,15,48,682.00
2010,04,14,15,49,685.90
2010,04,14,15,50,684.60
2010,04,14,15,51,693.60
2010,04,14,15,52,695.10
2010,04,14,15,53,690.30
2010,04,14,15,54,692.70
2010,04,14,15,55,691.60
2010,04,14,15,56,696.20
2010,04,14,15,57,714.60
2010,04,14,15,58,728.00
2010,04,14,15,59,729.00
2010,04,14,16,00,736.70
2010,04,14,16,01,734.70
2010,04,14,16,02,718.60
2010,04,14,16,03,698.00
2010,04,14,16,04,520.00
2010,04,14,16,05,520.00
2010,04,14,16,06,587.10
2010,04,14,16,07,642.00
2010,04,14,16,08,263.10
2010,04,14,16,09,157.10
2010,04,14,16,10,146.00
2010,04,14,16,11,142.80
2010,04,14,16,12,146.00
2010,04,14,16,13,437.40
2010,04,14,16,14,570.40
2010,04,14,16,15,552.20
2010,04,14,16,16,543.00
2010,04,14,16,17,552.80
2010,04,14,16,18,545.20
2010,04,14,16,19,525.50
2010,04,14,16,20,531.20
2010,04,14,16,21,512.30
2010,04,14,16,22,526.70
2010,04,14,16,23,521.20
2010,04,14,16,24,500.00
2010,04,14,16,25,494.50
2010,04,14,16,26,501.80
2010,04,14,16,27,494.10
2010,04,14,16,28,520.60
2010,04,14,16,29,513.80
2010,04,14,16,30,500.80
2010,04,14,16,31,500.50
2010,04,14,16,32,503.20
2010,04,14,16,33,494.00
2010,04,14,16,34,491.90
2010,04,14,16,35,483.70
2010,04,14,16,36,483.40
2010,04,14,16,37,481.00
2010,04,14,16,38,471.30
2010,04,14,16,39,469.70
2010,04,14,16,40,473.60
2010,04,14,16,41,472.70
2010,04,14,16,42,464.70
2010,04,14,16,43,489.30
2010,04,14,16,44,488.20
2010,04,14,16,45,496.70
2010,04,14,16,46,498.20
2010,04,14,16,47,494.10
2010,04,14,16,48,497.90
2010,04,14,16,49,497.90
2010,04,14,16,50,495.30
2010,04,14,16,51,489.00
2010,04,14,16,52,486.50
2010,04,14,16,53,482.40
2010,04,14,16,54,476.90
2010,04,14,16,55,470.10
2010,04,14,16,56,461.90
2010,04,14,16,57,461.00
2010,04,14,16,58,462.20
2010,04,14,16,59,464.00
2010,04,14,17,00,462.60
2010,04,14,17,01,462.00
2010,04,14,17,02,462.00
2010,04,14,17,03,461.70
2010,04,14,17,04,461.00
2010,04,14,17,05,457.60
2010,04,14,17,06,458.00
2010,04,14,17,07,457.20
2010,04,14,17,08,453.80
2010,04,14,17,09,447.40
2010,04,14,17,10,442.90
2010,04,14,17,11,439.00
2010,04,14,17,12,436.80
2010,04,14,17,13,434.30
2010,04,14,17,14,435.20
2010,04,14,17,15,429.10
2010,04,14,17,16,420.50
2010,04,14,17,17,421.70
2010,04,14,17,18,426.40
2010,04,14,17,19,423.70
2010,04,14,17,20,409.20
2010,04,14,17,21,401.60
2010,04,14,17,22,401.50
2010,04,14,17,23,408.80
2010,04,14,17,24,410.80
2010,04,14,17,25,410.90
2010,04,14,17,26,409.50
2010,04,14,17,27,404.50
2010,04,14,17,28,397.90
2010,04,14,17,29,397.00
2010,04,14,17,30,394.50
2010,04,14,17,31,393.50
2010,04,14,17,32,386.40
2010,04,14,17,33,379.80
2010,04,14,17,34,375.30
2010,04,14,17,35,373.70
2010,04,14,17,36,374.00
2010,04,14,17,37,366.70
2010,04,14,17,38,361.00
2010,04,14,17,39,351.90
2010,04,14,17,40,354.10
2010,04,14,17,41,355.60
2010,04,14,17,42,350.70
2010,04,14,17,43,349.70
2010,04,14,17,44,348.60
2010,04,14,17,45,338.80
2010,04,14,17,46,315.50
2010,04,14,17,47,326.50
2010,04,14,17,48,339.40
2010,04,14,17,49,328.70
2010,04,14,17,50,309.20
2010,04,14,17,51,301.50
2010,04,14,17,52,304.40
2010,04,14,17,53,311.30
2010,04,14,17,54,315.00
2010,04,14,17,55,321.80
2010,04,14,17,56,329.30
2010,04,14,17,57,330.00
2010,04,14,17,58,326.70
2010,04,14,17,59,325.00
2010,04,14,18,00,317.90